Tracking 22779 objects as of 15-Apr-2021
HD Live streaming from Space Station
objects crossing your sky now

ONEWEB-0172

Track ONEWEB-0172 now!
10-day predictions
ONEWEB-0172 is classified as:


NORAD ID: 48071
Int'l Code: 2021-025AF
Perigee: 447.0 km
Apogee: 456.0 km
Inclination: 87.4 °
Period: 93.5 minutes
Semi major axis: 6822 km
RCS: Unknown
Launch date: March 25, 2021
Source: United States (US)
Launch site: VOSTOCHNY COSMODROME (VOSTO)
aabbcc
Your satellite tracking list
Your tracking list is empty




NASA's NSSDC Master Catalog

Two Line Element Set (TLE):
1 48071U 21025AF  21104.83334491 -.00049924  00000-0 -12389-2 0  9998
2 48071  87.3913 342.7820 0006543 163.8824 207.3222 15.40587396  4469
Source of the keplerian elements: AFSPC